FW8013 Weather Reports


time (UTC)temp
F
wind
direction
speed
knots
gust
knots
rain 1hr
in
rain 24hr
in
rain mn
in
humidity
%
barometer
mb
20260504174558 69 307 3.5 10.4 0.00 0.00 0.00 40 1011.3
20260504173108 69 56 2.6 9.6 0.00 0.00 0.00 44 1011.3
20260504171607 68 325 3.5 14.8 0.00 0.00 0.00 44 1011.4
20260504160112 66 229 3.5 9.6 0.00 0.00 0.00 49 1012.4
20260504081558 38 298 0.0 3.5 0.00 0.00 0.00 84 1013.8
20260504044550 39 0 0.0 1.7 0.00 0.00 0.00 82 1013.6
20260504043055 39 0 0.0 1.7 0.00 0.00 0.00 84 1013.7
20260504041556 39 0 0.0 0.9 0.00 0.00 0.00 83 1013.6
20260504040054 39 0 0.0 0.0 0.00 0.00 0.00 84 1013.3
20260504034557 39 0 0.0 0.0 0.00 0.00 0.00 83 1013.1
20260504033056 39 0 0.0 0.0 0.00 0.00 0.00 83 1013.1
20260504031552 40 0 0.0 0.0 0.00 0.00 0.00 82 1013.0
20260504030051 40 0 0.0 0.0 0.00 0.00 0.00 79 1012.8
20260504024600 40 0 0.0 0.0 0.00 0.00 0.00 80 1012.8
20260504023055 41 0 0.0 0.0 0.00 0.00 0.00 81 1012.8
20260504021554 42 0 0.0 0.0 0.00 0.00 0.00 79 1012.8
20260504020058 43 0 0.0 0.0 0.00 0.00 0.00 76 1012.9
20260504014559 43 0 0.0 0.0 0.00 0.00 0.00 76 1012.8
20260504013111 45 0 0.0 0.0 0.00 0.00 0.00 74 1012.8
20260504011554 46 0 0.0 0.0 0.00 0.00 0.00 67 1012.5
20260504010055 48 286 0.0 1.7 0.00 0.00 0.00 61 1012.4
20260504004553 50 0 0.0 1.7 0.00 0.00 0.00 57 1012.2
20260504003051 52 0 0.0 1.7 0.00 0.00 0.00 51 1012.0
20260504001552 53 0 0.0 1.7 0.00 0.00 0.00 49 1011.8
20260504000106 54 0 0.0 3.5 0.00 0.00 0.00 45 1011.5
20260503234549 55 0 0.0 0.9 0.00 0.00 0.00 43 1011.4
20260503233049 56 0 0.9 6.1 0.00 0.00 0.00 41 1011.4
20260503231554 57 0 2.6 7.0 0.00 0.00 0.00 40 1011.3
20260503230052 58 303 0.9 7.8 0.00 0.00 0.00 39 1011.3
20260503224600 58 0 2.6 9.6 0.00 0.00 0.00 37 1011.3
20260503223050 59 296 2.6 8.7 0.00 0.00 0.00 37 1011.2
20260503221601 59 298 4.3 10.4 0.00 0.00 0.00 36 1011.1
20260503220052 59 317 5.2 11.3 0.00 0.00 0.00 35 1010.9
20260503214551 58 285 2.6 11.3 0.00 0.00 0.00 36 1011.2
20260503213050 59 297 2.6 9.6 0.00 0.00 0.00 36 1011.0
20260503211556 59 319 3.5 10.4 0.00 0.00 0.00 33 1011.0
20260503210050 59 338 7.0 15.6 0.00 0.00 0.00 35 1011.1
20260503204609 59 331 5.2 13.9 0.00 0.00 0.00 36 1011.2
20260503203049 59 327 5.2 11.3 0.00 0.00 0.00 37 1011.1
20260503201552 59 284 4.3 10.4 0.00 0.00 0.00 36 1011.3
20260503200054 57 296 2.6 10.4 0.00 0.00 0.00 38 1011.5
20260503194555 57 281 4.3 15.6 0.00 0.00 0.00 35 1011.5
20260503193051 57 242 2.6 10.4 0.00 0.00 0.00 37 1011.6
20260503191608 57 304 6.1 15.6 0.00 0.00 0.00 35 1011.5
20260503190048 56 314 2.6 12.2 0.00 0.00 0.00 41 1011.6
20260503184553 56 321 1.7 15.6 0.00 0.00 0.00 41 1011.5
20260503183055 56 271 1.7 11.3 0.00 0.00 0.00 39 1011.7
20260503181552 55 298 4.3 12.2 0.00 0.00 0.00 39 1011.9
20260503180059 56 260 5.2 15.6 0.00 0.00 0.00 40 1012.1